Airfield :
LOGIN :

Register | Disclaimer

   EN    FR    IT 

 










Legend :    VFR   Marginal VFR   IFR   Intensive IFR   Very Intensive IFR
Visi :
Ceiling :
>= 8 km
>= 3000ft
5 to 8 km
1000 to 3000 ft
1500m to 5 km
500 to 1000 ft
800 to 1500m
200 to 500 ft
< 800m
< 200 ft
Symbols :   Thunderstorms  Fog  Heavy snow  Heavy precipitations  Wind > 20 kt
SIGMETs :     Misc.  Thunderstorms  Icing  Turbulence  Mountain Waves  Volcanic Ashes






- Airport Elevation : 158 ft
- IATA code : QAR


EHDL - Deelen Airbase

CURRENT METAR :
  • 220425Z AUTO 02007KT 270V080 9999 FEW280 11/10 Q1016 BLU

EXPIRED METARs :
  • 220355Z AUTO 02007KT 340V070 9999 OVC250 11/10 Q1016 BLU
  • 220325Z AUTO 02005KT 330V080 9999 BKN033 BKN280 10/10 Q1015 BLU
  • 220255Z AUTO 02005KT 350V100 9999 OVC260 10/10 Q1015 BLU
  • 220225Z AUTO 34005KT 320V030 9000 BR OVC260 10/10 Q1015 BLU
  • 220155Z AUTO 05003KT 360V110 9999 OVC260 10/09 Q1015 BLU

Expired Forecast.



MET'MAP, your aeronautical weather chart ! - Copyright ORBIFLY December 2007 - Disclaimer

ORBIFLY MET'MAP TEAM :

Programming & Development : Alexandra Zaïnal
Concept & original design : Baudouin d'Aumeries
Assistance for programming : Marc-Olivier Méhu
Technical & hardware support : Manuel Goepfert

Contact : metmap@orbifly.com




SOURCES & CREDITS :

   NOAA